User: anonymous
Location: Albany
(35.0000°S, 118.0000°E)
Time: 14:50:30
(UTC-04:00)
Language:

Centaur D-1AR AC-48 - Orbit

View from above orbital plane
View from above orbital plane
View from above satellite
View from above satellite

Ground track
Ground track

The orbit data is extracted from the following two-line orbital elements,

1 10779U 78035B   14207.91384106 -.00000233  00000-0  10145-3 0  9143
2 10779 021.5174 076.0132 7174906 081.6547 003.1850 02.22630960295160
Epoch (UTC): 26 July 2014 21:55:55
Eccentricity: 0.7174906
inclination: 21.5174°
perigee height: 621 km
apogee height: 36172 km
right ascension of ascending node: 76.0132°
argument of perigee: 81.6547°
revolutions per day: 2.22630960
mean anomaly at epoch: 3.1850°
orbit number at epoch: 29516

The dashed part of the orbit path shows where the satellite is in the earth's shadow,  

DLR